M I D A S
Marine Information and Data Acquisition System
Tripno 341 of the Zeeleeuw from 2002-09-25 06:46:03 to 2002-09-25 12:56:14
Back to CruiseResearch ActivitiesStationsMapUnderway DataData graphs

EquipmentUnitsComment
TimeDGPSUTC
LatitudeDGPSDM.mWGS84
LongitudeDGPSDM.mWGS84
TemperatureSBE03/SBE38deg celciusITS90
ConductivitySBE21S/mITS90
SalinitySBE21 Practical Salinity Units
ChlorophylAChelsea fluorimeterg/lCalibrated in Aceton
Missing or incorrect values are displayed as -999
Sea surface data collected by the RV Zeeleeuw from 2002-09-25 06:46:03 to 2002-09-25 12:56:14
                                                                                    Next 1000 lines
Time Latitude Longitude Temperature Conductivity Salinity ChlorophylA
2002-09-25 06:46:09 51°13.668 2°55.947 36.339326 0.010194 0.059213  
2002-09-25 06:46:14 51°13.668 2°55.947 37.650118 0.010194 0.059213  
2002-09-25 06:46:19 51°13.668 2°55.947 37.452837 0.010194 0.059214  
2002-09-25 06:46:23 51°13.668 2°55.947 36.740897 0.010194 0.059213  
2002-09-25 06:46:29 51°13.668 2°55.947 37.890235 0.010194 0.059213  
2002-09-25 06:46:34 51°13.668 2°55.947 37.761067 0.01009 0.058652  
2002-09-25 06:46:38 51°13.668 2°55.947 37.761067 0.01009 0.058652  
2002-09-25 06:46:42 51°13.668 2°55.947 37.669659 0.010194 0.059214  
2002-09-25 06:46:49 51°13.668 2°55.947 37.500536 0.010194 0.059213  
2002-09-25 06:46:55 51°13.668 2°55.947 37.460212 0.010194 0.059215  
2002-09-25 06:46:59 51°13.668 2°55.947 36.471623 0.010194 0.059215  
2002-09-25 06:47:04 51°13.668 2°55.947 36.957721 0.010194 0.059215  
2002-09-25 06:47:09 51°13.668 2°55.947 36.957721 0.010194 0.059215  
2002-09-25 06:47:14 51°13.668 2°55.947 37.079589 0.010194 0.059215  
2002-09-25 06:47:19 51°13.668 2°55.947 37.775185 0.010194 0.059215  
2002-09-25 06:47:23 51°13.668 2°55.947 38.14051 0.010194 0.059215  
2002-09-25 06:47:29 51°13.668 2°55.947 36.868911 0.010194 0.059214  
2002-09-25 06:47:34 51°13.668 2°55.947 37.186989 0.010194 0.059214  
2002-09-25 06:47:39 51°13.668 2°55.947 37.186989 0.010194 0.059214  
2002-09-25 06:47:43 51°13.669 2°55.947 36.589375 0.010194 0.059215  
2002-09-25 06:47:49 51°13.669 2°55.947 37.374847 0.010194 0.059215  
2002-09-25 06:47:54 51°13.669 2°55.947 38.298298 0.010194 0.059215  
2002-09-25 06:47:59 51°13.669 2°55.947 37.007458 0.010194 0.059215  
2002-09-25 06:48:04 51°13.669 2°55.947 37.323829 0.010194 0.059215  
2002-09-25 06:48:09 51°13.669 2°55.947 37.323829 0.010194 0.059215  
2002-09-25 06:48:14 51°13.669 2°55.947 37.273389 0.010194 0.059215  
2002-09-25 06:48:19 51°13.669 2°55.947 37.258283 0.010194 0.059215  
2002-09-25 06:48:23 51°13.669 2°55.947 37.485217 0.010194 0.059214  
2002-09-25 06:48:29 51°13.669 2°55.947 36.878536 0.010194 0.059215  
2002-09-25 06:48:34 51°13.669 2°55.947 38.166321 0.010194 0.059215  
2002-09-25 06:48:39 51°13.669 2°55.947 38.166321 0.010194 0.059215  
2002-09-25 06:48:44 51°13.669 2°55.947 37.778378 0.010194 0.059215  
2002-09-25 06:48:49 51°13.669 2°55.947 37.222885 0.010194 0.059215  
2002-09-25 06:48:54 51°13.669 2°55.947 38.3134 0.010194 0.059215  
2002-09-25 06:48:59 51°13.669 2°55.947 37.071632 0.010194 0.059216  
2002-09-25 06:49:04 51°13.669 2°55.947 37.784669 0.010194 0.059215  
2002-09-25 06:49:09 51°13.669 2°55.947 37.784669 0.010194 0.059215  
2002-09-25 06:49:14 51°13.669 2°55.947 36.680116 0.010194 0.059216  
2002-09-25 06:49:19 51°13.669 2°55.947 35.985017 0.010194 0.059216  
2002-09-25 06:49:24 51°13.669 2°55.947 36.307649 0.010194 0.059216  
2002-09-25 06:49:29 51°13.669 2°55.947 37.067282 0.010194 0.059216  
2002-09-25 06:49:35 51°13.669 2°55.947 37.656867 0.010194 0.059215  
2002-09-25 06:49:39 51°13.669 2°55.947 37.656867 0.010194 0.059215  
2002-09-25 06:49:45 51°13.669 2°55.947 36.787892 0.010194 0.059216  
2002-09-25 06:49:49 51°13.669 2°55.947 37.001461 0.010194 0.059216  
2002-09-25 06:49:53 51°13.669 2°55.947 37.213752 0.010194 0.059216  
2002-09-25 06:49:59 51°13.669 2°55.947 38.082691 0.010194 0.059217  
2002-09-25 06:50:04 51°13.669 2°55.947 37.868673 0.010194 0.059216  
2002-09-25 06:50:09 51°13.669 2°55.947 37.868673 0.010194 0.059216  
2002-09-25 06:50:14 51°13.669 2°55.947 36.948945 0.010194 0.059216  
2002-09-25 06:50:19 51°13.668 2°55.947 36.909083 0.010194 0.059217  
2002-09-25 06:50:25 51°13.668 2°55.947 36.952107 0.010194 0.059217  
2002-09-25 06:50:28 51°13.669 2°55.947 36.845522 0.010194 0.059216  
2002-09-25 06:50:35 51°13.668 2°55.947 37.610765 0.010194 0.059217  
2002-09-25 06:50:39 51°13.668 2°55.947 37.610765 0.010194 0.059217  
2002-09-25 06:50:43 51°13.669 2°55.947 37.10188 0.010194 0.059217  
2002-09-25 06:50:49 51°13.668 2°55.947 37.393237 0.010194 0.059217  
2002-09-25 06:50:54 51°13.668 2°55.947 37.062159 0.010194 0.059217  
2002-09-25 06:50:58 51°13.668 2°55.947 37.16646 0.010194 0.059217  
2002-09-25 06:51:04 51°13.668 2°55.947 36.945137 0.010194 0.059217  
2002-09-25 06:51:09 51°13.668 2°55.947 36.945137 0.010194 0.059217  
2002-09-25 06:51:14 51°13.668 2°55.947 37.485665 0.010194 0.059217  
2002-09-25 06:51:19 51°13.668 2°55.947 36.657254 0.010194 0.059217  
2002-09-25 06:51:24 51°13.668 2°55.947 37.383192 0.010194 0.059218  
2002-09-25 06:51:29 51°13.668 2°55.947 37.012843 0.010194 0.059217  
2002-09-25 06:51:34 51°13.668 2°55.947 36.604187 0.010194 0.059218  
2002-09-25 06:51:39 51°13.668 2°55.947 36.604187 0.010194 0.059218  
2002-09-25 06:51:43 51°13.668 2°55.947 37.355715 0.010194 0.059217  
2002-09-25 06:51:50 51°13.668 2°55.947 37.506497 0.010194 0.059217  
2002-09-25 06:51:54 51°13.668 2°55.947 36.900301 0.010194 0.059218  
2002-09-25 06:51:59 51°13.668 2°55.947 37.844458 0.010194 0.059217  
2002-09-25 06:52:05 51°13.668 2°55.947 37.766433 0.010194 0.059218  
2002-09-25 06:52:09 51°13.668 2°55.947 37.766433 0.010194 0.059218  
2002-09-25 06:52:15 51°13.668 2°55.947 37.124679 0.010194 0.059218  
2002-09-25 06:52:19 51°13.668 2°55.947 37.328004 0.010194 0.059218  
2002-09-25 06:52:24 51°13.668 2°55.947 35.593969 0.010194 0.059217  
2002-09-25 06:52:29 51°13.668 2°55.947 37.244042 0.010194 0.059218  
2002-09-25 06:52:34 51°13.668 2°55.947 37.377672 0.010194 0.059218  
2002-09-25 06:52:39 51°13.668 2°55.947 37.377672 0.010194 0.059218  
2002-09-25 06:52:42 51°13.668 2°55.947 38.476075 0.010194 0.059218  
2002-09-25 06:52:49 51°13.668 2°55.947 36.587754 0.010194 0.059218  
2002-09-25 06:52:54 51°13.668 2°55.947 36.82888 0.010194 0.059218  
2002-09-25 06:52:58 51°13.668 2°55.948 36.985884 0.010194 0.059218  
2002-09-25 06:53:03 51°13.668 2°55.947 36.881152 0.010194 0.059218  
2002-09-25 06:53:09 51°13.668 2°55.947 36.881152 0.010194 0.059218  
2002-09-25 06:53:14 51°13.669 2°55.946 37.751452 0.010194 0.059219  
2002-09-25 06:53:19 51°13.669 2°55.946 36.324725 0.010194 0.059219  
2002-09-25 06:53:23 51°13.669 2°55.946 37.462488 0.010194 0.059218  
2002-09-25 06:53:30 51°13.669 2°55.946 36.644363 0.010194 0.059219  
2002-09-25 06:53:34 51°13.669 2°55.946 36.9664 0.010194 0.059218  
2002-09-25 06:53:39 51°13.669 2°55.946 36.9664 0.010194 0.059218  
2002-09-25 06:53:44 51°13.669 2°55.946 36.866844 0.010194 0.059219  
2002-09-25 06:53:50 51°13.669 2°55.947 38.164541 0.010194 0.059219  
2002-09-25 06:53:55 51°13.668 2°55.947 37.289039 0.010194 0.059219  
2002-09-25 06:53:59 51°13.668 2°55.947 37.600171 0.010194 0.059218  
2002-09-25 06:54:05 51°13.668 2°55.947 39.991116 0.010194 0.059219  
2002-09-25 06:54:10 51°13.668 2°55.947 39.991116 0.010194 0.059219  
2002-09-25 06:54:15 51°13.668 2°55.947 39.055805 0.010194 0.059218  
2002-09-25 06:54:19 51°13.668 2°55.947 36.880829 0.010194 0.059219  
2002-09-25 06:54:24 51°13.668 2°55.947 37.600331 0.010194 0.05922  
2002-09-25 06:54:29 51°13.668 2°55.947 38.516716 0.010194 0.05922  
2002-09-25 06:54:34 51°13.667 2°55.947 38.129986 0.010194 0.059219  
2002-09-25 06:54:39 51°13.667 2°55.947 38.129986 0.010194 0.059219  
2002-09-25 06:54:45 51°13.667 2°55.947 37.069538 0.010194 0.059219  
2002-09-25 06:54:49 51°13.667 2°55.947 37.686287 0.01009 0.058657  
2002-09-25 06:54:54 51°13.667 2°55.947 36.274299 0.010194 0.05922  
2002-09-25 06:54:59 51°13.667 2°55.948 37.543115 0.010194 0.05922  
2002-09-25 06:55:03 51°13.667 2°55.948 38.079732 0.010194 0.059219  
2002-09-25 06:55:09 51°13.667 2°55.948 38.079732 0.010194 0.059219  
2002-09-25 06:55:15 51°13.667 2°55.948 38.227287 0.010194 0.05922  
2002-09-25 06:55:19 51°13.667 2°55.948 37.071406 0.010194 0.05922  
2002-09-25 06:55:23 51°13.667 2°55.948 38.676423 0.010194 0.05922  
2002-09-25 06:55:29 51°13.667 2°55.948 37.623437 0.010194 0.05922  
2002-09-25 06:55:34 51°13.668 2°55.948 38.017762 0.010194 0.05922  
2002-09-25 06:55:39 51°13.668 2°55.948 38.017762 0.010194 0.05922  
2002-09-25 06:55:45 51°13.668 2°55.948 38.408262 0.010194 0.05922  
2002-09-25 06:55:50 51°13.668 2°55.948 38.264435 0.010194 0.05922  
2002-09-25 06:55:54 51°13.668 2°55.948 37.021612 0.010194 0.059221  
2002-09-25 06:55:59 51°13.667 2°55.948 36.133034 0.010194 0.059221  
2002-09-25 06:56:03 51°13.667 2°55.948 34.859768 0.010194 0.059221  
2002-09-25 06:56:09 51°13.667 2°55.948 34.859768 0.010194 0.059221  
2002-09-25 06:56:14 51°13.667 2°55.948 37.825438 0.01009 0.058658  
2002-09-25 06:56:19 51°13.667 2°55.948 36.741059 0.010194 0.059221  
2002-09-25 06:56:24 51°13.667 2°55.948 38.158057 0.010194 0.059221  
2002-09-25 06:56:29 51°13.667 2°55.948 38.263134 0.010194 0.059221  
2002-09-25 06:56:34 51°13.667 2°55.948 36.978594 0.010194 0.059221  
2002-09-25 06:56:38 51°13.667 2°55.948 36.978594 0.010194 0.059221  
2002-09-25 06:56:43 51°13.667 2°55.948 39.245945 0.010194 0.059221  
2002-09-25 06:56:49 51°13.667 2°55.948 39.641466 0.010194 0.059221  
2002-09-25 06:56:54 51°13.667 2°55.948 38.297632 0.010194 0.059221  
2002-09-25 06:56:59 51°13.667 2°55.948 39.310239 0.010194 0.059221  
2002-09-25 06:57:03 51°13.668 2°55.948 39.962927 0.010194 0.059221  
2002-09-25 06:57:09 51°13.668 2°55.948 39.962927 0.010194 0.059221  
2002-09-25 06:57:14 51°13.668 2°55.948 39.250115 0.010194 0.059221  
2002-09-25 06:57:18 51°13.668 2°55.948 39.40153 0.010194 0.059221  
2002-09-25 06:57:23 51°13.668 2°55.948 37.064028 0.010194 0.059221  
2002-09-25 06:57:29 51°13.668 2°55.948 37.512553 0.010194 0.059221  
2002-09-25 06:57:34 51°13.668 2°55.948 37.719212 0.010194 0.059221  
2002-09-25 06:57:39 51°13.667 2°55.948 37.719212 0.010194 0.059221  
2002-09-25 06:57:43 51°13.667 2°55.948 36.823613 0.010194 0.059221  
2002-09-25 06:57:49 51°13.667 2°55.948 38.434653 0.01009 0.05866  
2002-09-25 06:57:55 51°13.667 2°55.948 36.728182 0.010194 0.059221  
2002-09-25 06:57:59 51°13.667 2°55.948 36.720059 0.010194 0.059221  
2002-09-25 06:58:03 51°13.667 2°55.948 37.378827 0.010194 0.059221  
2002-09-25 06:58:09 51°13.667 2°55.948 37.378827 0.010194 0.059221  
2002-09-25 06:58:14 51°13.667 2°55.948 36.453637 0.010194 0.059221  
2002-09-25 06:58:19 51°13.667 2°55.947 34.686864 0.010194 0.059221  
2002-09-25 06:58:25 51°13.667 2°55.947 35.254464 0.01009 0.05866  
2002-09-25 06:58:30 51°13.667 2°55.947 36.777836 0.010194 0.059222  
2002-09-25 06:58:35 51°13.667 2°55.947 37.17798 0.010194 0.059222  
2002-09-25 06:58:39 51°13.667 2°55.947 37.17798 0.010194 0.059222  
2002-09-25 06:58:45 51°13.667 2°55.947 36.383829 0.010194 0.059222  
2002-09-25 06:58:49 51°13.667 2°55.947 36.569632 0.01009 0.05866  
2002-09-25 06:58:54 51°13.667 2°55.947 36.334319 0.010194 0.059222  
2002-09-25 06:58:59 51°13.668 2°55.947 36.414696 0.010194 0.059222  
2002-09-25 06:59:04 51°13.668 2°55.948 36.948267 0.01009 0.05866  
2002-09-25 06:59:09 51°13.668 2°55.948 36.948267 0.01009 0.05866  
2002-09-25 06:59:14 51°13.668 2°55.948 34.367586 0.010194 0.059222  
2002-09-25 06:59:18 51°13.667 2°55.948 35.372886 0.010194 0.059222  
2002-09-25 06:59:25 51°13.667 2°55.948 33.90248 0.010194 0.059223  
2002-09-25 06:59:27 51°13.667 2°55.948 35.346219 0.010194 0.059222  
2002-09-25 06:59:34 51°13.667 2°55.948 35.346812 0.010194 0.059222  
2002-09-25 06:59:39 51°13.667 2°55.947 35.346812 0.010194 0.059222  
2002-09-25 06:59:45 51°13.667 2°55.947 35.264649 0.010194 0.059222  
2002-09-25 06:59:49 51°13.667 2°55.947 35.290256 0.01009 0.05866  
2002-09-25 06:59:55 51°13.667 2°55.947 34.982292 0.010194 0.059223  
2002-09-25 06:59:59 51°13.667 2°55.947 35.295067 0.010194 0.059222  
2002-09-25 07:00:04 51°13.667 2°55.947 36.047932 0.010194 0.059222  
2002-09-25 07:00:08 51°13.666 2°55.947 36.047932 0.010194 0.059222  
2002-09-25 07:00:14 51°13.666 2°55.947 36.71171 0.010194 0.059223  
2002-09-25 07:00:18 51°13.666 2°55.947 35.725385 0.010194 0.059223  
2002-09-25 07:00:25 51°13.666 2°55.947 35.053183 0.010194 0.059223  
2002-09-25 07:00:30 51°13.666 2°55.947 35.378843 0.01009 0.058661  
2002-09-25 07:00:34 51°13.666 2°55.947 35.826153 0.010194 0.059224  
2002-09-25 07:00:39 51°13.666 2°55.947 35.826153 0.010194 0.059224  
2002-09-25 07:00:43 51°13.666 2°55.946 35.585172 0.01009 0.058661  
2002-09-25 07:00:48 51°13.666 2°55.946 37.0347 0.010194 0.059223  
2002-09-25 07:00:54 51°13.665 2°55.946 35.709327 0.010194 0.059223  
2002-09-25 07:00:59 51°13.665 2°55.946 34.436069 0.010194 0.059223  
2002-09-25 07:01:03 51°13.665 2°55.946 33.884366 0.010194 0.059223  
2002-09-25 07:01:09 51°13.665 2°55.946 33.884366 0.010194 0.059223  
2002-09-25 07:01:14 51°13.665 2°55.945 35.730858 0.010194 0.059223  
2002-09-25 07:01:18 51°13.666 2°55.944 35.087052 0.010194 0.059224  
2002-09-25 07:01:24 51°13.666 2°55.942 35.601124 0.010194 0.059224  
2002-09-25 07:01:29 51°13.667 2°55.94 34.148135 0.010194 0.059224  
2002-09-25 07:01:34 51°13.667 2°55.937 35.400826 0.010194 0.059224  
2002-09-25 07:01:39 51°13.668 2°55.934 35.400826 0.010194 0.059224  
2002-09-25 07:01:45 51°13.668 2°55.929 35.832305 0.010194 0.059224  
2002-09-25 07:01:50 51°13.669 2°55.925 35.70559 0.010194 0.059224  
2002-09-25 07:01:55 51°13.67 2°55.921 35.946368 0.010194 0.059224  
2002-09-25 07:01:59 51°13.67 2°55.917 34.920706 0.010194 0.059224  
2002-09-25 07:02:06 51°13.671 2°55.91 34.900542 0.010194 0.059224  
2002-09-25 07:02:10 51°13.672 2°55.906 34.900542 0.010194 0.059224  
2002-09-25 07:02:15 51°13.672 2°55.9 34.601582 0.010194 0.059224  
2002-09-25 07:02:20 51°13.673 2°55.894 35.432178 0.010194 0.059224  
2002-09-25 07:02:25 51°13.674 2°55.888 35.763127 0.010194 0.059224  
2002-09-25 07:02:30 51°13.674 2°55.882 34.947583 0.010194 0.059224  
2002-09-25 07:02:35 51°13.675 2°55.875 35.733577 0.010194 0.059225  
2002-09-25 07:02:40 51°13.675 2°55.869 35.733577 0.010194 0.059225  
2002-09-25 07:02:46 51°13.676 2°55.861 34.410749 0.010194 0.059225  
2002-09-25 07:02:50 51°13.676 2°55.855 35.255288 0.010194 0.059224  
2002-09-25 07:02:55 51°13.677 2°55.848 36.539408 0.010194 0.059225  
2002-09-25 07:02:59 51°13.678 2°55.842 36.572971 0.010194 0.059224  
2002-09-25 07:03:05 51°13.679 2°55.832 35.713817 0.010194 0.059225  
2002-09-25 07:03:10 51°13.68 2°55.824 35.713817 0.010194 0.059225  
2002-09-25 07:03:15 51°13.681 2°55.816 35.01834 0.01009 0.058664  
2002-09-25 07:03:19 51°13.682 2°55.81 36.032787 0.010194 0.059225  
2002-09-25 07:03:25 51°13.683 2°55.802 35.877813 0.010194 0.059225  
2002-09-25 07:03:30 51°13.684 2°55.795 35.466641 0.010194 0.059226  
2002-09-25 07:03:35 51°13.685 2°55.79 35.261815 0.010194 0.059225  
2002-09-25 07:03:39 51°13.685 2°55.788 35.261815 0.010194 0.059225  
2002-09-25 07:03:43 51°13.685 2°55.787 34.470838 0.010194 0.059225  
2002-09-25 07:03:49 51°13.685 2°55.788 32.941616 0.010194 0.059225  
2002-09-25 07:03:54 51°13.685 2°55.79 34.601316 0.010194 0.059226  
2002-09-25 07:03:59 51°13.685 2°55.794 34.372553 0.010194 0.059225  
2002-09-25 07:04:04 51°13.686 2°55.799 35.24187 0.010194 0.059225  
2002-09-25 07:04:09 51°13.687 2°55.802 35.24187 0.010194 0.059225  
2002-09-25 07:04:14 51°13.687 2°55.806 36.577575 0.010194 0.059225  
2002-09-25 07:04:19 51°13.688 2°55.808 34.574686 0.010194 0.059225  
2002-09-25 07:04:23 51°13.688 2°55.809 34.345612 0.010194 0.059225  
2002-09-25 07:04:29 51°13.687 2°55.809 34.91584 0.01009 0.058663  
2002-09-25 07:04:34 51°13.687 2°55.808 34.842704 0.010194 0.059226  
2002-09-25 07:04:39 51°13.686 2°55.805 34.842704 0.010194 0.059226  
2002-09-25 07:04:44 51°13.684 2°55.802 38.192759 0.010194 0.059227  
2002-09-25 07:04:49 51°13.683 2°55.798 36.308657 0.010194 0.059226  
2002-09-25 07:04:55 51°13.682 2°55.793 34.632855 0.01009 0.058664  
2002-09-25 07:04:59 51°13.68 2°55.79 36.5967 0.010194 0.059227  
2002-09-25 07:05:06 51°13.679 2°55.785 35.95176 0.010194 0.059226  
2002-09-25 07:05:10 51°13.679 2°55.783 35.95176 0.010194 0.059226  
2002-09-25 07:05:15 51°13.678 2°55.784 34.56032 0.01009 0.058664  
2002-09-25 07:05:20 51°13.679 2°55.786 33.704113 0.010194 0.059226  
2002-09-25 07:05:25 51°13.68 2°55.79 34.639002 0.010194 0.059227  
2002-09-25 07:05:30 51°13.682 2°55.794 34.442864 0.010194 0.059226  
2002-09-25 07:05:35 51°13.684 2°55.798 34.570197 0.010194 0.059227  
2002-09-25 07:05:40 51°13.686 2°55.801 34.570197 0.010194 0.059227  
2002-09-25 07:05:45 51°13.689 2°55.804 36.306836 0.010194 0.059226  
2002-09-25 07:05:50 51°13.691 2°55.807 35.997166 0.010194 0.059227  
2002-09-25 07:05:55 51°13.692 2°55.809 35.330972 0.010194 0.059227  
2002-09-25 07:06:00 51°13.694 2°55.811 35.482946 0.010194 0.059227  
2002-09-25 07:06:05 51°13.695 2°55.812 35.520409 0.010194 0.059227  
2002-09-25 07:06:10 51°13.695 2°55.812 35.520409 0.010194 0.059227  
2002-09-25 07:06:13 51°13.694 2°55.812 35.278228 0.010194 0.059227  
2002-09-25 07:06:19 51°13.693 2°55.811 36.051359 0.010194 0.059227  
2002-09-25 07:06:25 51°13.691 2°55.809 36.161848 0.010194 0.059227  
2002-09-25 07:06:30 51°13.688 2°55.807 35.644699 0.010194 0.059227  
2002-09-25 07:06:35 51°13.686 2°55.805 35.263496 0.010194 0.059227  
2002-09-25 07:06:39 51°13.685 2°55.804 35.263496 0.010194 0.059227  
2002-09-25 07:06:46 51°13.683 2°55.803 35.231351 0.010194 0.059227  
2002-09-25 07:06:50 51°13.683 2°55.802 35.136689 0.01009 0.058665  
2002-09-25 07:06:55 51°13.683 2°55.803 35.990765 0.010194 0.059227  
2002-09-25 07:07:00 51°13.684 2°55.803 34.065041 0.010194 0.059227  
2002-09-25 07:07:05 51°13.686 2°55.805 34.913025 0.010194 0.059228  
2002-09-25 07:07:10 51°13.689 2°55.806 34.913025 0.010194 0.059228  
2002-09-25 07:07:15 51°13.692 2°55.807 33.482717 0.010194 0.059227  
2002-09-25 07:07:20 51°13.694 2°55.807 34.807304 0.010194 0.059227  
2002-09-25 07:07:25 51°13.696 2°55.808 35.066534 0.010194 0.059227  
2002-09-25 07:07:30 51°13.698 2°55.808 34.412882 0.01009 0.058666  
2002-09-25 07:07:35 51°13.698 2°55.809 34.131516 0.010194 0.059228  
2002-09-25 07:07:39 51°13.698 2°55.809 34.131516 0.010194 0.059228  
2002-09-25 07:07:45 51°13.698 2°55.809 34.625678 0.01009 0.058666  
2002-09-25 07:07:50 51°13.697 2°55.809 35.214037 0.01009 0.058666  
2002-09-25 07:07:55 51°13.696 2°55.809 35.994946 0.010194 0.059228  
2002-09-25 07:07:59 51°13.695 2°55.809 35.001509 0.010194 0.059228  
2002-09-25 07:08:02 51°13.694 2°55.81 34.076152 0.010194 0.059228  
2002-09-25 07:08:10 51°13.695 2°55.81 34.076152 0.010194 0.059228  
2002-09-25 07:08:15 51°13.697 2°55.809 35.801308 0.010194 0.059228  
2002-09-25 07:08:20 51°13.699 2°55.809 34.843201 0.010194 0.059227  
2002-09-25 07:08:25 51°13.701 2°55.807 35.687265 0.010194 0.059228  
2002-09-25 07:08:29 51°13.702 2°55.807 34.386987 0.010194 0.059227  
2002-09-25 07:08:34 51°13.703 2°55.807 36.24074 0.010194 0.059228  
2002-09-25 07:08:39 51°13.702 2°55.807 36.24074 0.010194 0.059228  
2002-09-25 07:08:45 51°13.701 2°55.809 35.938983 0.010194 0.059227  
2002-09-25 07:08:50 51°13.699 2°55.811 36.945137 0.010194 0.059228  
2002-09-25 07:08:55 51°13.696 2°55.814 35.552961 0.010194 0.059229  
2002-09-25 07:08:59 51°13.694 2°55.817 35.767319 0.010194 0.059228  
2002-09-25 07:09:06 51°13.689 2°55.821 36.913958 0.010194 0.059229  
2002-09-25 07:09:10 51°13.686 2°55.824 36.913958 0.010194 0.059229  
2002-09-25 07:09:15 51°13.682 2°55.827 33.863296 0.01009 0.058666  
2002-09-25 07:09:19 51°13.679 2°55.83 35.256046 0.010194 0.059228  
2002-09-25 07:09:25 51°13.675 2°55.834 34.383754 0.010194 0.059229  
2002-09-25 07:09:30 51°13.673 2°55.836 35.687888 0.010194 0.059228  
2002-09-25 07:09:35 51°13.671 2°55.838 35.195301 0.01009 0.058667  
2002-09-25 07:09:39 51°13.671 2°55.838 35.195301 0.01009 0.058667  
2002-09-25 07:09:45 51°13.671 2°55.836 34.950893 0.010194 0.059228  
2002-09-25 07:09:50 51°13.672 2°55.834 35.977962 0.01009 0.058667  
2002-09-25 07:09:54 51°13.674 2°55.831 35.00389 0.010194 0.059229  
2002-09-25 07:10:00 51°13.677 2°55.825 35.4791 0.010194 0.059228  
2002-09-25 07:10:05 51°13.68 2°55.819 34.929876 0.010194 0.059228  
2002-09-25 07:10:09 51°13.683 2°55.813 34.929876 0.010194 0.059228  
2002-09-25 07:10:15 51°13.687 2°55.805 34.685702 0.01009 0.058667  
2002-09-25 07:10:19 51°13.691 2°55.798 35.864173 0.010194 0.059228  
2002-09-25 07:10:23 51°13.694 2°55.792 34.862651 0.010194 0.059228  
2002-09-25 07:10:29 51°13.699 2°55.782 36.270589 0.01009 0.058667  
2002-09-25 07:10:34 51°13.704 2°55.773 35.114731 0.010194 0.059228  
2002-09-25 07:10:39 51°13.708 2°55.763 35.114731 0.010194 0.059228  
2002-09-25 07:10:44 51°13.713 2°55.753 35.189759 0.010194 0.059228  
2002-09-25 07:10:50 51°13.719 2°55.74 34.639866 0.010194 0.059228  
2002-09-25 07:10:54 51°13.723 2°55.732 35.621996 0.01009 0.058666  
2002-09-25 07:10:59 51°13.729 2°55.722 36.52585 0.010194 0.059228  
2002-09-25 07:11:03 51°13.734 2°55.714 35.918326 0.01009 0.058666  
2002-09-25 07:11:09 51°13.742 2°55.703 35.918326 0.01009 0.058666  
2002-09-25 07:11:15 51°13.751 2°55.691 35.111197 0.010194 0.059228  
2002-09-25 07:11:19 51°13.757 2°55.683 35.175472 0.010194 0.059229  
2002-09-25 07:11:23 51°13.763 2°55.676 36.026683 0.01009 0.058666  
2002-09-25 07:11:29 51°13.772 2°55.665 32.697903 0.010194 0.059229  
2002-09-25 07:11:34 51°13.78 2°55.656 35.251134 0.010194 0.059229  
2002-09-25 07:11:38 51°13.786 2°55.65 35.251134 0.010194 0.059229  
2002-09-25 07:11:44 51°13.796 2°55.641 35.03573 0.010194 0.059228  
2002-09-25 07:11:49 51°13.805 2°55.633 34.844957 0.010194 0.059229  
2002-09-25 07:11:54 51°13.813 2°55.626 35.19761 0.010194 0.059229  
2002-09-25 07:11:59 51°13.822 2°55.62 35.365644 0.010194 0.059229  
2002-09-25 07:12:03 51°13.83 2°55.615 33.475366 0.01009 0.058667  
2002-09-25 07:12:09 51°13.84 2°55.608 33.475366 0.01009 0.058667  
2002-09-25 07:12:14 51°13.85 2°55.602 35.008883 0.01009 0.058667  
2002-09-25 07:12:19 51°13.859 2°55.596 35.868327 0.010194 0.059228  
2002-09-25 07:12:25 51°13.871 2°55.59 35.627311 0.010194 0.059229  
2002-09-25 07:12:29 51°13.878 2°55.585 34.87673 0.010194 0.059229  
2002-09-25 07:12:35 51°13.89 2°55.578 35.519916 0.010194 0.05923  
2002-09-25 07:12:40 51°13.9 2°55.573 35.519916 0.010194 0.05923  
2002-09-25 07:12:44 51°13.907 2°55.568 34.197467 0.010194 0.059229  
2002-09-25 07:12:49 51°13.917 2°55.563 34.630961 0.010194 0.059229  
2002-09-25 07:12:54 51°13.927 2°55.557 34.548745 0.01009 0.058667  
2002-09-25 07:12:59 51°13.936 2°55.552 35.207408 0.010194 0.059229  
2002-09-25 07:13:05 51°13.948 2°55.545 34.008927 0.010194 0.059229  
2002-09-25 07:13:09 51°13.956 2°55.54 34.008927 0.010194 0.059229  
2002-09-25 07:13:15 51°13.967 2°55.533 34.164515 0.010194 0.059229  
2002-09-25 07:13:19 51°13.975 2°55.529 35.596595 0.010194 0.059229  
2002-09-25 07:13:23 51°13.982 2°55.524 36.831466 0.010194 0.05923  
2002-09-25 07:13:29 51°13.994 2°55.515 34.203281 0.010194 0.05923  
2002-09-25 07:13:34 51°14.003 2°55.509 36.031938 0.010194 0.059229  
2002-09-25 07:13:39 51°14.012 2°55.502 36.031938 0.010194 0.059229  
2002-09-25 07:13:42 51°14.018 2°55.498 36.856798 0.01009 0.058667  
2002-09-25 07:13:49 51°14.031 2°55.488 35.420567 0.010194 0.059228  
2002-09-25 07:13:54 51°14.041 2°55.482 34.668832 0.010194 0.05923  
2002-09-25 07:13:58 51°14.048 2°55.476 34.641261 0.010194 0.059229  
2002-09-25 07:14:03 51°14.058 2°55.469 34.146429 0.010194 0.059229  
2002-09-25 07:14:09 51°14.069 2°55.461 34.146429 0.010194 0.059229  
2002-09-25 07:14:14 51°14.078 2°55.454 33.874637 0.010194 0.059229  
2002-09-25 07:14:19 51°14.087 2°55.447 34.695464 0.010194 0.059229  
2002-09-25 07:14:23 51°14.094 2°55.441 35.051795 0.010194 0.059229  
2002-09-25 07:14:29 51°14.105 2°55.432 33.685684 0.010194 0.059229  
2002-09-25 07:14:34 51°14.115 2°55.424 34.229804 0.010194 0.059229  
2002-09-25 07:14:39 51°14.124 2°55.417 34.229804 0.010194 0.059229  
2002-09-25 07:14:45 51°14.135 2°55.407 34.085522 0.010194 0.059229  
2002-09-25 07:14:49 51°14.142 2°55.401 35.797249 0.010194 0.05923  
2002-09-25 07:14:54 51°14.151 2°55.392 35.096268 0.010194 0.059229  
2002-09-25 07:14:59 51°14.16 2°55.384 35.780484 0.010194 0.059229  
2002-09-25 07:15:05 51°14.17 2°55.373 35.309892 0.010194 0.059229  
2002-09-25 07:15:09 51°14.177 2°55.366 35.309892 0.010194 0.059229  
2002-09-25 07:15:14 51°14.185 2°55.356 35.768465 0.010194 0.05923  
2002-09-25 07:15:19 51°14.194 2°55.347 34.121483 0.010194 0.059229  
2002-09-25 07:15:25 51°14.204 2°55.334 34.505558 0.010194 0.059228  
2002-09-25 07:15:29 51°14.21 2°55.326 34.205987 0.01009 0.058667  
2002-09-25 07:15:34 51°14.218 2°55.315 34.309252 0.010194 0.059228  
2002-09-25 07:15:39 51°14.226 2°55.304 34.309252 0.010194 0.059228  
2002-09-25 07:15:44 51°14.234 2°55.293 35.377691 0.010194 0.059229  
2002-09-25 07:15:49 51°14.241 2°55.281 34.287162 0.010194 0.059229  
2002-09-25 07:15:54 51°14.249 2°55.27 33.329882 0.010194 0.059229  
2002-09-25 07:15:59 51°14.256 2°55.258 34.071199 0.01009 0.058666  
2002-09-25 07:16:05 51°14.265 2°55.244 33.464473 0.010194 0.059229  
2002-09-25 07:16:09 51°14.271 2°55.234 33.464473 0.010194 0.059229  
2002-09-25 07:16:15 51°14.28 2°55.219 33.907812 0.010194 0.059228  
2002-09-25 07:16:19 51°14.285 2°55.209 34.085789 0.010194 0.059228  
2002-09-25 07:16:23 51°14.291 2°55.199 34.694966 0.010194 0.059228  
2002-09-25 07:16:29 51°14.299 2°55.183 33.902949 0.010194 0.059229  
2002-09-25 07:16:34 51°14.305 2°55.17 34.234413 0.010194 0.059227  
2002-09-25 07:16:39 51°14.312 2°55.158 34.234413 0.010194 0.059227  
2002-09-25 07:16:42 51°14.316 2°55.15 34.508254 0.010194 0.059229  
2002-09-25 07:16:49 51°14.325 2°55.132 34.099875 0.010194 0.059228  
2002-09-25 07:16:54 51°14.332 2°55.119 33.631214 0.01009 0.058667  
2002-09-25 07:16:59 51°14.338 2°55.106 34.867289 0.010194 0.059228  
2002-09-25 07:17:03 51°14.343 2°55.096 34.320195 0.010194 0.059229  
2002-09-25 07:17:09 51°14.351 2°55.08 34.320195 0.010194 0.059229  
2002-09-25 07:17:14 51°14.357 2°55.066 34.602314 0.010194 0.059228  
2002-09-25 07:17:19 51°14.363 2°55.052 34.415181 0.010194 0.059229  
2002-09-25 07:17:24 51°14.368 2°55.038 33.551611 0.010194 0.059228  
2002-09-25 07:17:29 51°14.374 2°55.023 34.859172 0.010194 0.059229  
2002-09-25 07:17:34 51°14.378 2°55.007 34.199405 0.010194 0.05923  
2002-09-25 07:17:39 51°14.382 2°54.99 34.199405 0.010194 0.05923  
2002-09-25 07:17:45 51°14.385 2°54.968 33.202571 0.010194 0.05923  
2002-09-25 07:17:50 51°14.386 2°54.949 34.116634 0.010194 0.059229  
2002-09-25 07:17:54 51°14.387 2°54.933 34.282523 0.010194 0.05923  
2002-09-25 07:17:59 51°14.387 2°54.912 34.798617 0.010194 0.059229  
2002-09-25 07:18:04 51°14.387 2°54.89 34.580937 0.010194 0.05923  
2002-09-25 07:18:09 51°14.387 2°54.867 34.580937 0.010194 0.05923  
2002-09-25 07:18:14 51°14.386 2°54.844 34.196264 0.010194 0.059229  
2002-09-25 07:18:19 51°14.386 2°54.82 32.992737 0.010194 0.059228  
2002-09-25 07:18:23 51°14.385 2°54.8 34.283624 0.01009 0.058665  
2002-09-25 07:18:29 51°14.384 2°54.77 34.086927 0.010194 0.059227  
2002-09-25 07:18:34 51°14.383 2°54.745 34.030293 0.010194 0.059224  
2002-09-25 07:18:39 51°14.383 2°54.719 34.030293 0.010194 0.059224  
2002-09-25 07:18:44 51°14.382 2°54.692 33.045452 0.010194 0.059225  
2002-09-25 07:18:49 51°14.381 2°54.664 32.150615 0.01009 0.058664  
2002-09-25 07:18:54 51°14.38 2°54.636 31.406085 0.010194 0.059226  
2002-09-25 07:18:59 51°14.379 2°54.608 33.590042 0.010194 0.059227  
2002-09-25 07:19:03 51°14.377 2°54.584 33.627411 0.010194 0.059229  
2002-09-25 07:19:09 51°14.373 2°54.549 33.627411 0.010194 0.059229  
2002-09-25 07:19:14 51°14.369 2°54.52 33.65588 0.010194 0.05923  
2002-09-25 07:19:19 51°14.364 2°54.491 33.093218 0.010194 0.059231  
2002-09-25 07:19:24 51°14.359 2°54.461 33.949185 0.010194 0.059231  
2002-09-25 07:19:29 51°14.354 2°54.432 33.031616 0.010194 0.05923  
2002-09-25 07:19:39 51°14.345 2°54.372 33.058982 0.010194 0.05923  
2002-09-25 07:19:43 51°14.34 2°54.348 33.615495 0.010194 0.059228  
2002-09-25 07:19:50 51°14.334 2°54.305 32.737985 0.010194 0.059229  
2002-09-25 07:19:54 51°14.329 2°54.281 33.313967 0.010194 0.059226  
2002-09-25 07:19:59 51°14.325 2°54.251 33.567713 0.010194 0.059224  
2002-09-25 07:20:04 51°14.319 2°54.22 33.789438 0.010194 0.059223  
2002-09-25 07:20:09 51°14.315 2°54.19 33.789438 0.010194 0.059223  
2002-09-25 07:20:14 51°14.309 2°54.159 34.01817 0.01009 0.058661  
2002-09-25 07:20:19 51°14.304 2°54.129 34.057946 0.01009 0.058664  
2002-09-25 07:20:22 51°14.301 2°54.111 34.202947 0.010194 0.059226  
2002-09-25 07:20:29 51°14.293 2°54.068 35.096664 0.010194 0.059227  
2002-09-25 07:20:34 51°14.287 2°54.038 34.148569 0.010194 0.059228  
2002-09-25 07:20:39 51°14.281 2°54.007 34.148569 0.010194 0.059228  
2002-09-25 07:20:44 51°14.275 2°53.977 34.279051 0.010194 0.059227  
2002-09-25 07:20:50 51°14.268 2°53.94 34.090139 0.010194 0.059225  
2002-09-25 07:20:54 51°14.264 2°53.916 33.571351 0.010194 0.059218  
2002-09-25 07:20:59 51°14.258 2°53.885 33.748652 0.01009 0.058658  
2002-09-25 07:21:05 51°14.252 2°53.848 33.01988 0.010194 0.059218  
2002-09-25 07:21:09 51°14.248 2°53.824 33.01988 0.010194 0.059218  
2002-09-25 07:21:13 51°14.243 2°53.799 34.72358 0.010194 0.059224  
2002-09-25 07:21:18 51°14.238 2°53.768 33.96038 0.010194 0.059224  
2002-09-25 07:21:24 51°14.231 2°53.731 34.256752 0.01009 0.058658  
2002-09-25 07:21:29 51°14.224 2°53.701 34.149572 0.01009 0.058676  
2002-09-25 07:21:34 51°14.216 2°53.671 33.994088 0.010194 0.059239  
2002-09-25 07:21:39 51°14.208 2°53.641 33.994088 0.010194 0.059239  
2002-09-25 07:21:43 51°14.202 2°53.617 32.944808 0.010194 0.059236  
2002-09-25 07:21:49 51°14.191 2°53.582 34.039734 0.010194 0.059237  
2002-09-25 07:21:55 51°14.179 2°53.548 32.991957 0.01009 0.058673  
2002-09-25 07:21:59 51°14.172 2°53.525 33.492327 0.010194 0.059235  
2002-09-25 07:22:02 51°14.165 2°53.508 35.397075 0.010194 0.059234  
2002-09-25 07:22:09 51°14.151 2°53.468 35.397075 0.010194 0.059234  
2002-09-25 07:22:14 51°14.141 2°53.44 35.787557 0.010194 0.059233  
2002-09-25 07:22:19 51°14.131 2°53.411 33.793267 0.010194 0.05923  
2002-09-25 07:22:23 51°14.124 2°53.388 33.849705 0.010194 0.059227  
2002-09-25 07:22:29 51°14.111 2°53.354 34.207791 0.010194 0.05923  
2002-09-25 07:22:34 51°14.102 2°53.325 34.486952 0.010194 0.059229  
2002-09-25 07:22:38 51°14.092 2°53.304 34.486952 0.010194 0.059229  
2002-09-25 07:22:43 51°14.084 2°53.273 33.346571 0.010194 0.05923  
2002-09-25 07:22:49 51°14.07 2°53.241 34.897959 0.010194 0.059224  
2002-09-25 07:22:54 51°14.062 2°53.21 33.972344 0.01009 0.058655  
2002-09-25 07:22:59 51°14.051 2°53.182 33.555586 0.010194 0.059224  
2002-09-25 07:23:05 51°14.039 2°53.148 34.13884 0.01009 0.058661  
2002-09-25 07:23:10 51°14.03 2°53.119 34.13884 0.01009 0.058661  
2002-09-25 07:23:14 51°14.02 2°53.098 34.40845 0.010194 0.059218  
2002-09-25 07:23:19 51°14.011 2°53.068 35.671658 0.010194 0.059215  
2002-09-25 07:23:25 51°13.998 2°53.035 34.791488 0.010194 0.059217  
2002-09-25 07:23:30 51°13.989 2°53.006 33.218306 0.010194 0.059207  
2002-09-25 07:23:34 51°13.98 2°52.984 33.790312 0.010194 0.059209  
2002-09-25 07:23:40 51°13.968 2°52.949 33.790312 0.010194 0.059209  
2002-09-25 07:23:45 51°13.958 2°52.92 33.306329 0.010194 0.059209  
2002-09-25 07:23:50 51°13.947 2°52.893 34.828552 0.010194 0.059207  
2002-09-25 07:23:54 51°13.94 2°52.869 33.033176 0.010194 0.059211  
2002-09-25 07:23:59 51°13.929 2°52.84 33.254975 0.010194 0.059221  
2002-09-25 07:24:05 51°13.918 2°52.806 34.927459 0.01009 0.058667  
2002-09-25 07:24:10 51°13.907 2°52.777 34.927459 0.01009 0.058667  
2002-09-25 07:24:15 51°13.898 2°52.747 34.659732 0.010194 0.05923  
2002-09-25 07:24:19 51°13.889 2°52.724 35.013381 0.010194 0.059241  
2002-09-25 07:24:25 51°13.878 2°52.689 34.24777 0.010194 0.059242  
2002-09-25 07:24:30 51°13.867 2°52.661 34.770627 0.010194 0.059237  
2002-09-25 07:24:35 51°13.859 2°52.631 34.902595 0.010194 0.059231  
2002-09-25 07:24:39 51°13.85 2°52.609 34.902595 0.010194 0.059231  
2002-09-25 07:24:45 51°13.838 2°52.574 33.914486 0.010194 0.059222  
2002-09-25 07:24:50 51°13.829 2°52.545 35.208133 0.010194 0.059227  
2002-09-25 07:24:55 51°13.819 2°52.516 33.9642 0.010194 0.059223  
2002-09-25 07:24:59 51°13.81 2°52.493 31.314442 0.01009 0.058665  
2002-09-25 07:25:05 51°13.799 2°52.458 33.271341 0.01009 0.058661  
2002-09-25 07:25:10 51°13.789 2°52.429 33.271341 0.01009 0.058661  
2002-09-25 07:25:15 51°13.779 2°52.4 33.740923 0.010194 0.059222  
2002-09-25 07:25:20 51°13.769 2°52.37 34.045593 0.010194 0.059224  
2002-09-25 07:25:25 51°13.76 2°52.341 33.853095 0.01009 0.058665  
2002-09-25 07:25:30 51°13.748 2°52.312 32.82914 0.010194 0.059229  
2002-09-25 07:25:35 51°13.739 2°52.282 33.99181 0.010194 0.05923  
2002-09-25 07:25:39 51°13.729 2°52.26 33.99181 0.010194 0.05923  
2002-09-25 07:25:43 51°13.722 2°52.235 34.109007 0.010194 0.059233  
2002-09-25 07:25:50 51°13.707 2°52.194 33.416969 0.010194 0.05923  
2002-09-25 07:25:55 51°13.696 2°52.165 33.974086 0.010194 0.059236  
2002-09-25 07:25:59 51°13.687 2°52.142 33.671288 0.010194 0.059232  
2002-09-25 07:26:05 51°13.675 2°52.106 34.192388 0.01009 0.058664  
2002-09-25 07:26:10 51°13.664 2°52.077 34.192388 0.01009 0.058664  
2002-09-25 07:26:15 51°13.653 2°52.047 34.331437 0.010194 0.059229  
2002-09-25 07:26:19 51°13.644 2°52.023 34.733237 0.01009 0.058667  
2002-09-25 07:26:25 51°13.631 2°51.989 34.22603 0.010194 0.059231  
2002-09-25 07:26:30 51°13.619 2°51.962 33.366464 0.010194 0.059233  
2002-09-25 07:26:35 51°13.607 2°51.932 32.199794 0.010194 0.059233  
2002-09-25 07:26:39 51°13.599 2°51.908 32.199794 0.010194 0.059233  
2002-09-25 07:26:45 51°13.585 2°51.873 32.647473 0.01009 0.058676  
2002-09-25 07:26:50 51°13.574 2°51.845 34.557925 0.010194 0.059235  
2002-09-25 07:26:54 51°13.565 2°51.821 32.963786 0.010194 0.059233  
2002-09-25 07:26:59 51°13.555 2°51.791 33.824832 0.010194 0.059234  
2002-09-25 07:27:05 51°13.542 2°51.756 33.318563 0.010194 0.059233  
2002-09-25 07:27:10 51°13.532 2°51.726 33.318563 0.010194 0.059233  
2002-09-25 07:27:15 51°13.52 2°51.698 35.350302 0.010194 0.059232  
2002-09-25 07:27:19 51°13.512 2°51.673 33.594756 0.010194 0.059227  
2002-09-25 07:27:22 51°13.506 2°51.655 34.047334 0.010194 0.059224  
2002-09-25 07:27:30 51°13.488 2°51.609 33.178607 0.010194 0.059231  
2002-09-25 07:27:35 51°13.476 2°51.581 33.298961 0.010194 0.059238  
2002-09-25 07:27:40 51°13.465 2°51.552 33.298961 0.010194 0.059238  
2002-09-25 07:27:45 51°13.453 2°51.523 33.71662 0.010194 0.059232  
2002-09-25 07:27:50 51°13.443 2°51.493 34.140712 0.01009 0.058661  
2002-09-25 07:27:54 51°13.434 2°51.469 29.861829 0.010194 0.059239  
2002-09-25 07:27:59 51°13.424 2°51.439 35.158904 0.010194 0.05924  
2002-09-25 07:28:05 51°13.41 2°51.406 34.567237 0.010194 0.059244  
2002-09-25 07:28:10 51°13.4 2°51.376 34.567237 0.010194 0.059244  
2002-09-25 07:28:15 51°13.39 2°51.346 35.245101 0.010194 0.059251  
2002-09-25 07:28:20 51°13.379 2°51.316 34.525125 0.010194 0.059249  
2002-09-25 07:28:25 51°13.368 2°51.287 33.777581 0.010194 0.059245  
2002-09-25 07:28:29 51°13.361 2°51.263 34.654018 0.010194 0.059243  
2002-09-25 07:28:34 51°13.349 2°51.235 34.412382 0.010194 0.059239  
2002-09-25 07:28:39 51°13.339 2°51.204 34.412382 0.010194 0.059239  
2002-09-25 07:28:45 51°13.326 2°51.169 34.656277 0.010194 0.059235  
2002-09-25 07:28:50 51°13.316 2°51.14 33.999548 0.010194 0.059232  
2002-09-25 07:28:55 51°13.304 2°51.111 34.088901 0.010194 0.05923  
2002-09-25 07:28:59 51°13.297 2°51.086 33.909958 0.010194 0.059221  
2002-09-25 07:29:05 51°13.284 2°51.051 34.413115 0.01009 0.05865  
2002-09-25 07:29:10 51°13.273 2°51.022 34.413115 0.01009 0.05865  
2002-09-25 07:29:15 51°13.262 2°50.993 33.651136 0.010194 0.059206  
2002-09-25 07:29:19 51°13.253 2°50.969 33.067084 0.010194 0.059209  
2002-09-25 07:29:25 51°13.239 2°50.936 33.899662 0.010194 0.059213  
2002-09-25 07:29:30 51°13.228 2°50.907 33.873429 0.010194 0.059219  
2002-09-25 07:29:35 51°13.218 2°50.876 33.699271 0.010194 0.059219  
2002-09-25 07:29:39 51°13.208 2°50.854 33.699271 0.010194 0.059219  
2002-09-25 07:29:45 51°13.196 2°50.818 33.808312 0.010194 0.059214  
2002-09-25 07:29:49 51°13.188 2°50.795 33.459818 0.010194 0.059215  
2002-09-25 07:29:54 51°13.176 2°50.765 33.841985 0.01009 0.058653  
2002-09-25 07:29:59 51°13.166 2°50.736 33.636464 0.010194 0.059215  
2002-09-25 07:30:05 51°13.154 2°50.7 32.795875 0.010194 0.059212  
2002-09-25 07:30:09 51°13.145 2°50.676 32.795875 0.010194 0.059212  
2002-09-25 07:30:15 51°13.133 2°50.641 33.636128 0.010194 0.059218  
2002-09-25 07:30:20 51°13.122 2°50.611 32.916213 0.010194 0.059226  
2002-09-25 07:30:25 51°13.111 2°50.582 33.829867 0.010194 0.059227  
2002-09-25 07:30:30 51°13.1 2°50.554 33.987857 0.01009 0.058666  
2002-09-25 07:30:35 51°13.088 2°50.525 34.047568 0.010194 0.059227  
2002-09-25 07:30:40 51°13.077 2°50.495 34.047568 0.010194 0.059227  
2002-09-25 07:30:45 51°13.066 2°50.466 34.565408 0.010194 0.05923  
2002-09-25 07:30:50 51°13.055 2°50.438 33.799749 0.010194 0.059235  
2002-09-25 07:30:55 51°13.044 2°50.409 34.181093 0.010194 0.059244  
2002-09-25 07:30:59 51°13.034 2°50.387 36.050934 0.010194 0.059239  
2002-09-25 07:31:05 51°13.021 2°50.351 35.59154 0.010194 0.059239  
2002-09-25 07:31:10 51°13.01 2°50.322 35.59154 0.010194 0.059239  
2002-09-25 07:31:15 51°12.999 2°50.293 33.555148 0.01009 0.058676  
2002-09-25 07:31:19 51°12.991 2°50.269 31.405912 0.010194 0.059241  
2002-09-25 07:31:25 51°12.978 2°50.234 35.061048 0.010194 0.059231  
2002-09-25 07:31:30 51°12.967 2°50.205 33.00441 0.01009 0.058672  
2002-09-25 07:31:35 51°12.955 2°50.176 35.007726 0.010194 0.059238  
2002-09-25 07:31:39 51°12.946 2°50.152 35.007726 0.010194 0.059238  
2002-09-25 07:31:45 51°12.933 2°50.118 34.411049 0.010194 0.059234  
2002-09-25 07:31:50 51°12.922 2°50.089 34.386387 0.010194 0.059231  
2002-09-25 07:31:55 51°12.912 2°50.059 35.844707 0.010194 0.059231  
2002-09-25 07:31:59 51°12.901 2°50.038 35.121467 0.010194 0.059234  
2002-09-25 07:32:03 51°12.894 2°50.013 35.579624 0.010194 0.05923  
2002-09-25 07:32:10 51°12.877 2°49.973 35.579624 0.010194 0.05923  
2002-09-25 07:32:15 51°12.867 2°49.943 35.704508 0.010194 0.059239  
2002-09-25 07:32:19 51°12.857 2°49.92 35.506116 0.010194 0.059241  
2002-09-25 07:32:25 51°12.845 2°49.884 34.635314 0.010194 0.059236  
2002-09-25 07:32:30 51°12.834 2°49.855 34.690649 0.010194 0.059236  
2002-09-25 07:32:34 51°12.825 2°49.832 36.256919 0.010194 0.059231  
2002-09-25 07:32:39 51°12.814 2°49.803 36.256919 0.010194 0.059231  
2002-09-25 07:32:43 51°12.805 2°49.78 36.036933 0.010194 0.059229  
2002-09-25 07:32:50 51°12.79 2°49.737 30.467734 0.01009 0.05867  
2002-09-25 07:32:55 51°12.778 2°49.71 35.513246 0.01009 0.058667  
2002-09-25 07:32:59 51°12.77 2°49.686 34.336173 0.01009 0.05867  
2002-09-25 07:33:05 51°12.756 2°49.651 33.790379 0.010194 0.059234  
2002-09-25 07:33:09 51°12.747 2°49.627 33.790379 0.010194 0.059234  
2002-09-25 07:33:15 51°12.733 2°49.593 34.609792 0.01009 0.05867  
2002-09-25 07:33:19 51°12.723 2°49.57 35.507792 0.010194 0.059234  
2002-09-25 07:33:25 51°12.71 2°49.534 35.193124 0.010194 0.05923  
2002-09-25 07:33:30 51°12.699 2°49.505 36.067739 0.010194 0.059228  
2002-09-25 07:33:35 51°12.687 2°49.477 37.164915 0.01009 0.058673  
2002-09-25 07:33:39 51°12.678 2°49.454 37.164915 0.01009 0.058673  
2002-09-25 07:33:44 51°12.668 2°49.422 30.96548 0.01009 0.058667  
2002-09-25 07:33:49 51°12.656 2°49.395 36.330611 0.010194 0.059236  
2002-09-25 07:33:55 51°12.644 2°49.358 35.820654 0.010194 0.059242  
2002-09-25 07:33:59 51°12.635 2°49.335 35.516828 0.010194 0.059251  
2002-09-25 07:34:05 51°12.622 2°49.299 37.904106 0.010194 0.059245  
2002-09-25 07:34:10 51°12.61 2°49.27 37.904106 0.010194 0.059245  
2002-09-25 07:34:15 51°12.6 2°49.241 30.377239 0.010194 0.059239  
2002-09-25 07:34:19 51°12.59 2°49.218 35.115193 0.010194 0.05923  
2002-09-25 07:34:23 51°12.582 2°49.194 35.547575 0.010194 0.05923  
2002-09-25 07:34:30 51°12.565 2°49.154 35.522577 0.010194 0.05923  
2002-09-25 07:34:35 51°12.554 2°49.125 34.71339 0.010194 0.059235  
2002-09-25 07:34:40 51°12.542 2°49.096 34.71339 0.010194 0.059235  
2002-09-25 07:34:45 51°12.53 2°49.068 32.591757 0.01009 0.058678  
2002-09-25 07:34:49 51°12.52 2°49.046 33.812409 0.010194 0.059243  
2002-09-25 07:34:55 51°12.507 2°49.009 34.551074 0.010194 0.059236  
2002-09-25 07:34:59 51°12.497 2°48.988 33.233632 0.010194 0.059234  
2002-09-25 07:35:05 51°12.483 2°48.955 34.656277 0.010194 0.059237  
2002-09-25 07:35:10 51°12.472 2°48.924 34.656277 0.010194 0.059237  
2002-09-25 07:35:15 51°12.461 2°48.896 35.370285 0.01009 0.058667  
2002-09-25 07:35:19 51°12.452 2°48.872 34.722252 0.01009 0.058676  
2002-09-25 07:35:23 51°12.444 2°48.849 35.391448 0.010194 0.059236  
2002-09-25 07:35:30 51°12.428 2°48.808 35.251332 0.010194 0.059236  
2002-09-25 07:35:35 51°12.417 2°48.78 34.235348 0.010194 0.059248  
2002-09-25 07:35:40 51°12.406 2°48.751 34.235348 0.010194 0.059248  
2002-09-25 07:35:45 51°12.395 2°48.721 33.124018 0.010194 0.059244  
2002-09-25 07:35:50 51°12.383 2°48.693 34.12737 0.010194 0.059242  
2002-09-25 07:35:55 51°12.372 2°48.664 33.742603 0.010194 0.059241  
2002-09-25 07:35:59 51°12.362 2°48.641 33.571755 0.010194 0.059242  
2002-09-25 07:36:02 51°12.355 2°48.624 34.377654 0.010194 0.059232  
2002-09-25 07:36:10 51°12.337 2°48.579 34.377654 0.010194 0.059232  
2002-09-25 07:36:15 51°12.325 2°48.551 34.914085 0.010194 0.05923  
2002-09-25 07:36:20 51°12.313 2°48.523 34.425909 0.010194 0.059233  
2002-09-25 07:36:25 51°12.302 2°48.494 33.327855 0.010194 0.059236  
2002-09-25 07:36:30 51°12.289 2°48.466 33.852759 0.010194 0.059242  
2002-09-25 07:36:34 51°12.282 2°48.442 34.947252 0.010194 0.059233  
2002-09-25 07:36:39 51°12.269 2°48.414 34.947252 0.010194 0.059233  
2002-09-25 07:36:45 51°12.258 2°48.378 30.655645 0.010194 0.059237  
2002-09-25 07:36:50 51°12.245 2°48.351 34.686034 0.010194 0.059238  
2002-09-25 07:36:55 51°12.235 2°48.321 35.13933 0.010194 0.059238  
2002-09-25 07:36:59 51°12.227 2°48.298 34.817216 0.010194 0.059234  
2002-09-25 07:37:05 51°12.214 2°48.263 35.709163 0.010194 0.059232  
2002-09-25 07:37:09 51°12.206 2°48.239 35.709163 0.010194 0.059232  
2002-09-25 07:37:15 51°12.193 2°48.203 33.615765 0.010194 0.059239  
2002-09-25 07:37:20 51°12.182 2°48.175 35.064121 0.010194 0.059232  
2002-09-25 07:37:23 51°12.176 2°48.157 33.33299 0.010194 0.059219  
2002-09-25 07:37:30 51°12.161 2°48.116 34.530748 0.010194 0.059226  
2002-09-25 07:37:35 51°12.15 2°48.088 35.553618 0.010194 0.059233  
2002-09-25 07:37:39 51°12.142 2°48.065 35.553618 0.010194 0.059233  
2002-09-25 07:37:43 51°12.133 2°48.041 34.933782 0.010194 0.059233  
2002-09-25 07:37:49 51°12.121 2°48.005 35.262309 0.010194 0.059234  
2002-09-25 07:37:55 51°12.108 2°47.971 35.086886 0.010194 0.059234  
2002-09-25 07:37:59 51°12.099 2°47.947 30.614635 0.010194 0.059228  
2002-09-25 07:38:05 51°12.088 2°47.911 35.559266 0.010194 0.059221  
2002-09-25 07:38:10 51°12.079 2°47.881 35.559266 0.010194 0.059221  
2002-09-25 07:38:14 51°12.071 2°47.857 34.106532 0.010194 0.059219  
2002-09-25 07:38:19 51°12.061 2°47.827 35.614974 0.010194 0.059223  
2002-09-25 07:38:24 51°12.051 2°47.798 35.938558 0.010194 0.059225  
2002-09-25 07:38:30 51°12.04 2°47.761 35.303732 0.010194 0.059226  
2002-09-25 07:38:35 51°12.03 2°47.732 34.852247 0.010194 0.059224  
2002-09-25 07:38:39 51°12.022 2°47.708 34.852247 0.010194 0.059224  
2002-09-25 07:38:43 51°12.013 2°47.685 34.181828 0.010194 0.059234  
2002-09-25 07:38:50 51°12.001 2°47.641 29.869323 0.010194 0.059233  
2002-09-25 07:38:55 51°11.99 2°47.613 34.841544 0.010194 0.059233  
2002-09-25 07:38:59 51°11.983 2°47.587 29.814622 0.010194 0.059235  
2002-09-25 07:39:05 51°11.972 2°47.552 35.265045 0.010194 0.059234  
2002-09-25 07:39:10 51°11.961 2°47.522 35.265045 0.010194 0.059234  
2002-09-25 07:39:15 51°11.952 2°47.49 30.140543 0.010194 0.059233  
2002-09-25 07:39:19 51°11.945 2°47.466 34.961383 0.010194 0.059233  
2002-09-25 07:39:23 51°11.937 2°47.442 34.290833 0.010194 0.059233  
2002-09-25 07:39:29 51°11.928 2°47.405 34.428441 0.010194 0.059233  
2002-09-25 07:39:35 51°11.916 2°47.369 33.992882 0.010194 0.059233  
2002-09-25 07:39:40 51°11.909 2°47.338 33.992882 0.010194 0.059233  
2002-09-25 07:39:45 51°11.898 2°47.308 33.552521 0.010194 0.059231  
2002-09-25 07:39:49 51°11.893 2°47.283 34.050615 0.010194 0.059229  
2002-09-25 07:39:55 51°11.882 2°47.247 33.362006 0.010194 0.059239  
2002-09-25 07:39:59 51°11.876 2°47.221 34.435969 0.010194 0.059226  
2002-09-25 07:40:04 51°11.867 2°47.191 34.600086 0.010194 0.059224  
2002-09-25 07:40:09 51°11.858 2°47.16 34.600086 0.010194 0.059224  
2002-09-25 07:40:15 51°11.847 2°47.124 34.492178 0.01009 0.058667  
2002-09-25 07:40:19 51°11.842 2°47.098 29.507823 0.010194 0.059232  
2002-09-25 07:40:25 51°11.831 2°47.062 33.479075 0.010194 0.059235  
2002-09-25 07:40:30 51°11.822 2°47.031 34.849066 0.010194 0.059237  
2002-09-25 07:40:35 51°11.815 2°47 35.066203 0.01009 0.05868  
2002-09-25 07:40:39 51°11.808 2°46.975 35.066203 0.01009 0.05868  
2002-09-25 07:40:45 51°11.799 2°46.938 22.280143 0.010194 0.059238  
2002-09-25 07:40:49 51°11.793 2°46.913 20.215152 0.01009 0.058663  
2002-09-25 07:40:55 51°11.783 2°46.876 20.164707 0.010194 0.059213  
2002-09-25 07:40:59 51°11.776 2°46.851 20.020679 0.010194 0.059213  
2002-09-25 07:41:05 51°11.767 2°46.814 20.209383 0.010194 0.059209  
2002-09-25 07:41:10 51°11.758 2°46.783 20.209383 0.010194 0.059209  
2002-09-25 07:41:15 51°11.75 2°46.752 19.848826 0.010194 0.059213  
2002-09-25 07:41:19 51°11.743 2°46.727 20.109903 0.010194 0.05922  
2002-09-25 07:41:25 51°11.734 2°46.689 20.052468 0.010194 0.059218  
2002-09-25 07:41:30 51°11.726 2°46.659 20.05174 0.010194 0.059226  
2002-09-25 07:41:35 51°11.717 2°46.628 20.181418 0.010194 0.05923  
2002-09-25 07:41:39 51°11.711 2°46.603 20.181418 0.010194 0.05923  
2002-09-25 07:41:45 51°11.701 2°46.566 19.852922 0.010194 0.059229  
2002-09-25 07:41:49 51°11.695 2°46.541 20.11766 0.010194 0.059228  
2002-09-25 07:41:55 51°11.686 2°46.503 20.090669 0.010194 0.059234  
2002-09-25 07:41:59 51°11.679 2°46.478 20.119154 0.010194 0.059239  
2002-09-25 07:42:05 51°11.67 2°46.44 20.055056 0.010194 0.059239  
2002-09-25 07:42:10 51°11.662 2°46.408 20.055056 0.010194 0.059239  
2002-09-25 07:42:15 51°11.656 2°46.377 20.206801 0.01009 0.05867  
2002-09-25 07:42:19 51°11.649 2°46.353 20.257337 0.010194 0.059233  
2002-09-25 07:42:24 51°11.641 2°46.32 19.939807 0.010194 0.059245  
2002-09-25 07:42:30 51°11.632 2°46.283 19.964143 0.010194 0.059248  
2002-09-25 07:42:35 51°11.625 2°46.25 19.995108 0.010194 0.05924  
2002-09-25 07:42:39 51°11.618 2°46.225 19.995108 0.010194 0.05924  
2002-09-25 07:42:43 51°11.613 2°46.2 20.039811 0.010194 0.059239  
2002-09-25 07:42:50 51°11.601 2°46.156 20.10259 0.010194 0.059239  
2002-09-25 07:42:55 51°11.597 2°46.123 19.851746 0.010194 0.059245  
2002-09-25 07:42:59 51°11.59 2°46.099 19.898201 0.010194 0.059248  
2002-09-25 07:43:03 51°11.585 2°46.073 20.07814 0.01009 0.058689  
2002-09-25 07:43:10 51°11.576 2°46.029 20.07814 0.01009 0.058689  
2002-09-25 07:43:15 51°11.569 2°45.997 20.069327 0.010194 0.059258  
2002-09-25 07:43:19 51°11.565 2°45.972 19.957584 0.010194 0.059252  
2002-09-25 07:43:23 51°11.557 2°45.947 19.776159 0.010194 0.059256  
2002-09-25 07:43:30 51°11.549 2°45.902 20.060514 0.010194 0.059252  
2002-09-25 07:43:35 51°11.541 2°45.871 20.089941 0.010194 0.05926  
2002-09-25 07:43:39 51°11.537 2°45.845 20.089941 0.010194 0.05926  
2002-09-25 07:43:45 51°11.526 2°45.808 20.120972 0.010194 0.059249  
2002-09-25 07:43:49 51°11.522 2°45.782 19.940212 0.010194 0.059252  
2002-09-25 07:43:55 51°11.511 2°45.744 20.213135 0.010194 0.059263  
2002-09-25 07:43:59 51°11.508 2°45.719 20.149768 0.010194 0.05926  
2002-09-25 07:44:05 51°11.497 2°45.683 20.054611 0.010194 0.059267  
2002-09-25 07:44:09 51°11.492 2°45.657 20.054611 0.010194 0.059267  
2002-09-25 07:44:14 51°11.484 2°45.626 20.276203 0.010194 0.059261  
2002-09-25 07:44:19 51°11.477 2°45.594 19.964669 0.01009 0.058698  
2002-09-25 07:44:25 51°11.468 2°45.557 20.027596 0.010194 0.059257  
2002-09-25 07:44:30 51°11.461 2°45.525 19.961471 0.01009 0.058706  
2002-09-25 07:44:35 51°11.454 2°45.493 20.058169 0.010194 0.059273  
2002-09-25 07:44:40 51°11.445 2°45.462 20.058169 0.010194 0.059273  
2002-09-25 07:44:44 51°11.439 2°45.436 20.057118 0.010194 0.059264  
2002-09-25 07:44:50 51°11.432 2°45.398 20.230359 0.010194 0.059269  
2002-09-25 07:44:55 51°11.423 2°45.367 32.662094 0.010194 0.059251  
2002-09-25 07:44:59 51°11.42 2°45.34 33.188796 0.010194 0.05924  
2002-09-25 07:45:05 51°11.41 2°45.303 33.065152 0.010194 0.059254  
2002-09-25 07:45:10 51°11.404 2°45.27 33.065152 0.010194 0.059254  
2002-09-25 07:45:15 51°11.397 2°45.239 32.826827 0.010194 0.059263  
2002-09-25 07:45:19 51°11.391 2°45.214 33.87769 0.010194 0.059263  
2002-09-25 07:45:25 51°11.382 2°45.177 34.614645 0.01009 0.058693  
2002-09-25 07:45:30 51°11.375 2°45.144 34.53637 0.010194 0.059261  
2002-09-25 07:45:34 51°11.369 2°45.12 33.861585 0.010194 0.059272  
2002-09-25 07:45:39 51°11.362 2°45.088 33.861585 0.010194 0.059272  
2002-09-25 07:45:45 51°11.352 2°45.049 33.874 0.010194 0.059275  
2002-09-25 07:45:50 51°11.344 2°45.018 33.764781 0.010194 0.059272  
2002-09-25 07:45:54 51°11.338 2°44.992 34.090574 0.010194 0.059264  
2002-09-25 07:45:59 51°11.332 2°44.96 33.562964 0.010194 0.05926  
2002-09-25 07:46:05 51°11.322 2°44.922 34.387487 0.010194 0.059254  
2002-09-25 07:46:10 51°11.315 2°44.891 34.387487 0.010194 0.059254  
2002-09-25 07:46:15 51°11.307 2°44.86 34.760809 0.010194 0.05926  
2002-09-25 07:46:19 51°11.301 2°44.835 34.378887 0.010194 0.059265  
2002-09-25 07:46:22 51°11.296 2°44.816 34.147834 0.010194 0.059265  
2002-09-25 07:46:30 51°11.284 2°44.765 34.066112 0.010194 0.059266  
2002-09-25 07:46:35 51°11.275 2°44.735 35.941728 0.010194 0.059265  
2002-09-25 07:46:39 51°11.27 2°44.708 35.941728 0.010194 0.059265  
2002-09-25 07:46:44 51°11.262 2°44.677 34.02383 0.010194 0.059261  
2002-09-25 07:46:50 51°11.252 2°44.64 34.28853 0.01009 0.058698  
2002-09-25 07:46:55 51°11.245 2°44.607 34.056238 0.010194 0.059259  
2002-09-25 07:46:59 51°11.24 2°44.581 34.430473 0.01009 0.058695  
2002-09-25 07:47:03 51°11.233 2°44.556 33.915123 0.010194 0.059257  
2002-09-25 07:47:09 51°11.223 2°44.519 33.915123 0.010194 0.059257  
2002-09-25 07:47:15 51°11.214 2°44.48 29.835312 0.010194 0.059259  
2002-09-25 07:47:20 51°11.208 2°44.449 34.429207 0.010194 0.05926  
2002-09-25 07:47:23 51°11.202 2°44.431 34.715448 0.010194 0.059259  
2002-09-25 07:47:30 51°11.193 2°44.385 34.356149 0.010194 0.059253  
2002-09-25 07:47:35 51°11.184 2°44.355 33.313325 0.010194 0.059254  
2002-09-25 07:47:39 51°11.179 2°44.33 33.313325 0.010194 0.059254  
2002-09-25 07:47:43 51°11.171 2°44.306 34.52589 0.01009 0.058689  
2002-09-25 07:47:50 51°11.161 2°44.261 29.977334 0.010194 0.059248  
2002-09-25 07:47:55 51°11.152 2°44.231 34.956254 0.010194 0.059266  
2002-09-25 07:47:59 51°11.148 2°44.205 34.749761 0.010194 0.059266  
2002-09-25 07:48:05 51°11.139 2°44.167 34.352581 0.010194 0.059258  
2002-09-25 07:48:10 51°11.134 2°44.135 34.352581 0.010194 0.059258  
2002-09-25 07:48:15 51°11.127 2°44.103 34.565907 0.010194 0.059258  
2002-09-25 07:48:19 51°11.123 2°44.076 34.100511 0.010194 0.059249  
2002-09-25 07:48:23 51°11.119 2°44.051 34.701406 0.010194 0.059249  
2002-09-25 07:48:30 51°11.11 2°44.006 34.312355 0.010194 0.059249  
2002-09-25 07:48:35 51°11.105 2°43.974 34.631294 0.010194 0.059255  
2002-09-25 07:48:39 51°11.099 2°43.948 34.631294 0.010194 0.059255  
2002-09-25 07:48:43 51°11.096 2°43.922 34.876895 0.010194 0.059251  
2002-09-25 07:48:50 51°11.087 2°43.877 31.273542 0.010194 0.059258  
2002-09-25 07:48:55 51°11.081 2°43.845 34.729188 0.010194 0.059251  
2002-09-25 07:48:59 51°11.077 2°43.819 34.264664 0.010194 0.059247  
2002-09-25 07:49:03 51°11.072 2°43.793 33.963463 0.010194 0.059254  
2002-09-25 07:49:10 51°11.065 2°43.747 33.963463 0.010194 0.059254  
2002-09-25 07:49:15 51°11.058 2°43.716 35.293617 0.010194 0.059252  
2002-09-25 07:49:19 51°11.055 2°43.69 34.634184 0.010194 0.059256  
2002-09-25 07:49:23 51°11.049 2°43.664 35.933035 0.010194 0.059262  
2002-09-25 07:49:30 51°11.042 2°43.617 36.327034 0.010194 0.059259  
2002-09-25 07:49:35 51°11.036 2°43.585 34.868017 0.010194 0.059251  
2002-09-25 07:49:39 51°11.033 2°43.559 34.868017 0.010194 0.059251  
2002-09-25 07:49:45 51°11.025 2°43.521 36.01986 0.010194 0.059254  
2002-09-25 07:49:50 51°11.02 2°43.487 34.157663 0.01009 0.058688  
2002-09-25 07:49:54 51°11.015 2°43.461 35.192299 0.01009 0.058687  
2002-09-25 07:49:58 51°11.011 2°43.435 35.622291 0.01009 0.058681  
2002-09-25 07:50:05 51°11.002 2°43.389 35.029846 0.01009 0.058684  
2002-09-25 07:50:10 51°10.997 2°43.357 35.029846 0.01009 0.058684  
2002-09-25 07:50:15 51°10.992 2°43.323 34.904681 0.010194 0.059247  
2002-09-25 07:50:19 51°10.986 2°43.298 34.842969 0.010194 0.059248  
2002-09-25 07:50:25 51°10.98 2°43.26 35.516269 0.01009 0.058688  
2002-09-25 07:50:30 51°10.975 2°43.227 35.652505 0.010194 0.059252  
2002-09-25 07:50:35 51°10.969 2°43.194 35.002071 0.010194 0.059253  
2002-09-25 07:50:39 51°10.964 2°43.168 35.002071 0.010194 0.059253  
2002-09-25 07:50:45 51°10.957 2°43.129 34.58127 0.01009 0.058692  
2002-09-25 07:50:50 51°10.952 2°43.096 33.258255 0.010194 0.059254  
2002-09-25 07:50:55 51°10.947 2°43.063 35.72414 0.010194 0.059254  
2002-09-25 07:50:59 51°10.942 2°43.037 33.89926 0.010194 0.059251  
2002-09-25 07:51:05 51°10.935 2°42.998 33.592265 0.010194 0.059247  
2002-09-25 07:51:09 51°10.93 2°42.972 33.592265 0.010194 0.059247  
2002-09-25 07:51:15 51°10.924 2°42.932 34.383087 0.01009 0.058696  
2002-09-25 07:51:20 51°10.918 2°42.9 35.638958 0.010194 0.05926  
2002-09-25 07:51:23 51°10.916 2°42.88 34.916733 0.010194 0.059257  
2002-09-25 07:51:30 51°10.907 2°42.836 36.741803 0.010194 0.05926  
2002-09-25 07:51:35 51°10.901 2°42.803 36.099708 0.010194 0.059257  
2002-09-25 07:51:39 51°10.896 2°42.777 36.099708 0.010194 0.059257  
2002-09-25 07:51:43 51°10.892 2°42.75 36.498952 0.010194 0.05925  
2002-09-25 07:51:50 51°10.884 2°42.706 34.105428 0.010194 0.059254  
2002-09-25 07:51:55 51°10.877 2°42.675 35.15326 0.010194 0.059248  
2002-09-25 07:51:59 51°10.873 2°42.648 34.981597 0.010194 0.059247  
2002-09-25 07:52:05 51°10.866 2°42.609 34.019811 0.010194 0.059245  
2002-09-25 07:52:10 51°10.86 2°42.576 34.019811 0.010194 0.059245  
2002-09-25 07:52:15 51°10.855 2°42.544 35.604078 0.010194 0.059245  
2002-09-25 07:52:19 51°10.851 2°42.518 36.239666 0.010194 0.059249  
2002-09-25 07:52:25 51°10.842 2°42.48 35.328437 0.010194 0.059252  
2002-09-25 07:52:30 51°10.837 2°42.447 35.021647 0.010194 0.059253  
2002-09-25 07:52:35 51°10.831 2°42.414 31.504399 0.01009 0.058683  
2002-09-25 07:52:39 51°10.827 2°42.388 31.504399 0.01009 0.058683  
2002-09-25 07:52:45 51°10.821 2°42.35 33.1105 0.010194 0.059251  
2002-09-25 07:52:50 51°10.814 2°42.318 31.771117 0.010194 0.059261  
2002-09-25 07:52:54 51°10.81 2°42.291 33.039111 0.01009 0.058692  
2002-09-25 07:52:58 51°10.805 2°42.265 31.448784 0.010194 0.059258  
2002-09-25 07:53:02 51°10.801 2°42.239 32.385423 0.010194 0.059254  
2002-09-25 07:53:10 51°10.791 2°42.188 32.385423 0.010194 0.059254  
2002-09-25 07:53:15 51°10.785 2°42.156 32.034093 0.010194 0.059249  
2002-09-25 07:53:19 51°10.782 2°42.13 31.891755 0.010194 0.059249  
2002-09-25 07:53:22 51°10.777 2°42.111 33.153044 0.01009 0.058687  
2002-09-25 07:53:30 51°10.769 2°42.059 32.552862 0.01009 0.05869  
2002-09-25 07:53:35 51°10.764 2°42.026 31.870548 0.01009 0.058687  
2002-09-25 07:53:39 51°10.759 2°42 31.870548 0.01009 0.058687  
2002-09-25 07:53:45 51°10.752 2°41.961 31.977966 0.010194 0.059248  
2002-09-25 07:53:50 51°10.747 2°41.929 31.997803 0.010194 0.059248  
2002-09-25 07:53:55 51°10.74 2°41.896 33.602871 0.01009 0.058689  
2002-09-25 07:53:59 51°10.738 2°41.87 33.94285 0.010194 0.059248  
2002-09-25 07:54:04 51°10.73 2°41.838 29.134306 0.010194 0.059263  
2002-09-25 07:54:10 51°10.724 2°41.798 29.134306 0.010194 0.059263  
2002-09-25 07:54:14 51°10.72 2°41.772 34.005845 0.01009 0.058692  
2002-09-25 07:54:19 51°10.714 2°41.74 33.253892 0.010194 0.059254  
2002-09-25 07:54:25 51°10.707 2°41.701 32.78771 0.010194 0.059257  
2002-09-25 07:54:30 51°10.701 2°41.67 34.157027 0.010194 0.05926  
2002-09-25 07:54:35 51°10.696 2°41.637 34.615841 0.010194 0.059254  
2002-09-25 07:54:39 51°10.69 2°41.611 34.615841 0.010194 0.059254  
2002-09-25 07:54:45 51°10.685 2°41.572 30.013151 0.010194 0.059257  
2002-09-25 07:54:50 51°10.677 2°41.54 33.450542 0.010194 0.059255  
2002-09-25 07:54:55 51°10.673 2°41.507 34.171033 0.010194 0.059254  
2002-09-25 07:54:59 51°10.667 2°41.481 34.59274 0.010194 0.059256  
2002-09-25 07:55:05 51°10.662 2°41.442 33.050641 0.010194 0.05924  
2002-09-25 07:55:10 51°10.654 2°41.41 33.050641 0.010194 0.05924  
2002-09-25 07:55:15 51°10.648 2°41.378 33.612802 0.010194 0.059244  
2002-09-25 07:55:19 51°10.645 2°41.35 34.327768 0.010194 0.059242  
2002-09-25 07:55:22 51°10.64 2°41.332 33.404852 0.010194 0.059245  
2002-09-25 07:55:30 51°10.631 2°41.28 34.21367 0.010194 0.059251  
2002-09-25 07:55:35 51°10.626 2°41.247 34.264965 0.010194 0.059248  
2002-09-25 07:55:39 51°10.62 2°41.222 34.264965 0.010194 0.059248  
2002-09-25 07:55:44 51°10.615 2°41.188 33.576841 0.010194 0.059254  
2002-09-25 07:55:50 51°10.607 2°41.149 34.484988 0.010194 0.059255  
2002-09-25 07:55:55 51°10.602 2°41.116 33.04352 0.010194 0.059252  
2002-09-25 07:56:00 51°10.596 2°41.083 32.748471 0.010194 0.059257  
2002-09-25 07:56:05 51°10.591 2°41.05 32.364625 0.010194 0.059252  
2002-09-25 07:56:10 51°10.585 2°41.018 32.364625 0.010194 0.059252  
2002-09-25 07:56:15 51°10.579 2°40.984 33.444402 0.010194 0.059251  
2002-09-25 07:56:19 51°10.576 2°40.957 34.411882 0.010194 0.059252  
2002-09-25 07:56:25 51°10.569 2°40.918 33.249699 0.010194 0.059253  
2002-09-25 07:56:30 51°10.563 2°40.884 32.86018 0.010194 0.059254  
2002-09-25 07:56:35 51°10.557 2°40.852 33.367883 0.010194 0.059258  
2002-09-25 07:56:40 51°10.551 2°40.819 33.367883 0.010194 0.059258  
2002-09-25 07:56:45 51°10.547 2°40.785 33.310554 0.010194 0.059259  
2002-09-25 07:56:50 51°10.539 2°40.754 34.835313 0.010194 0.059256  
2002-09-25 07:56:55 51°10.534 2°40.721 33.828088 0.01009 0.058678  
2002-09-25 07:56:59 51°10.53 2°40.694 33.25095 0.010194 0.059242  
2002-09-25 07:57:05 51°10.523 2°40.655 33.783292 0.010194 0.059244  
2002-09-25 07:57:10 51°10.517 2°40.623 33.783292 0.010194 0.059244  
2002-09-25 07:57:15 51°10.512 2°40.59 34.885308 0.010194 0.059246  
2002-09-25 07:57:19 51°10.506 2°40.564 33.612466 0.010194 0.059248  
2002-09-25 07:57:25 51°10.499 2°40.525 34.299409 0.010194 0.059252  
2002-09-25 07:57:29 51°10.495 2°40.499 33.365687 0.010194 0.059249  
2002-09-25 07:57:35 51°10.487 2°40.46 34.398619 0.010194 0.059251  
2002-09-25 07:57:40 51°10.483 2°40.427 34.398619 0.010194 0.059251  
2002-09-25 07:57:45 51°10.476 2°40.395 33.497654 0.010194 0.059252  
2002-09-25 07:57:50 51°10.47 2°40.363 35.450168 0.010194 0.059252  
2002-09-25 07:57:54 51°10.465 2°40.337 35.063956 0.010194 0.05925  
2002-09-25 07:57:59 51°10.459 2°40.305 34.578543 0.010194 0.059248  
2002-09-25 07:58:05 51°10.453 2°40.265 35.277866 0.010194 0.059244  
2002-09-25 07:58:09 51°10.447 2°40.239 35.277866 0.010194 0.059244  
2002-09-25 07:58:15 51°10.441 2°40.2 34.39382 0.010194 0.059252  
2002-09-25 07:58:19 51°10.436 2°40.174 34.586889 0.010194 0.059256  
2002-09-25 07:58:25 51°10.429 2°40.134 33.042095 0.010194 0.059257  
2002-09-25 07:58:30 51°10.424 2°40.102 33.757725 0.010194 0.05926  
2002-09-25 07:58:35 51°10.417 2°40.07 33.596878 0.010194 0.059266  
2002-09-25 07:58:39 51°10.413 2°40.044 33.596878 0.010194 0.059266  
2002-09-25 07:58:45 51°10.406 2°40.005 34.596297 0.010194 0.059262  
2002-09-25 07:58:50 51°10.401 2°39.972 34.171835 0.010194 0.059254  
2002-09-25 07:58:55 51°10.394 2°39.94 35.021052 0.010194 0.059255  
2002-09-25 07:58:59 51°10.391 2°39.913 34.46298 0.010194 0.059254  
2002-09-25 07:59:05 51°10.383 2°39.875 33.730335 0.010194 0.059255  
2002-09-25 07:59:10 51°10.38 2°39.842 33.730335 0.010194 0.059255  
2002-09-25 07:59:15 51°10.372 2°39.809 33.44231 0.010194 0.059254  
2002-09-25 07:59:19 51°10.369 2°39.783 34.818542 0.010194 0.059253  
2002-09-25 07:59:25 51°10.362 2°39.744 34.101648 0.010194 0.059254  
2002-09-25 07:59:30 51°10.357 2°39.711 33.780671 0.010194 0.059259  
2002-09-25 07:59:34 51°10.352 2°39.685 34.475799 0.01009 0.058694  
2002-09-25 07:59:39 51°10.348 2°39.652 34.475799 0.01009 0.058694  
2002-09-25 07:59:45 51°10.34 2°39.613 33.244389 0.010194 0.059257  
2002-09-25 07:59:50 51°10.335 2°39.58 33.901876 0.010194 0.05926  
2002-09-25 07:59:55 51°10.329 2°39.548 33.202571 0.010194 0.059266  
2002-09-25 07:59:59 51°10.325 2°39.521 34.537502 0.010194 0.059265  
2002-09-25 08:00:05 51°10.319 2°39.482 33.601053 0.010194 0.059261  
2002-09-25 08:00:10 51°10.312 2°39.45 33.601053 0.010194 0.059261  
2002-09-25 08:00:14 51°10.309 2°39.424 29.252247 0.010194 0.059256  
2002-09-25 08:00:19 51°10.301 2°39.392 34.85513 0.010194 0.059254  
2002-09-25 08:00:25 51°10.297 2°39.352 30.260372 0.010194 0.059254  
2002-09-25 08:00:30 51°10.288 2°39.321 35.266726 0.010194 0.059243  
2002-09-25 08:00:35 51°10.286 2°39.287 34.369553 0.010194 0.059239  
2002-09-25 08:00:39 51°10.279 2°39.263 34.369553 0.010194 0.059239  
2002-09-25 08:00:45 51°10.274 2°39.224 34.879115 0.010194 0.059257  
2002-09-25 08:00:50 51°10.268 2°39.191 34.73546 0.01009 0.05869  
2002-09-25 08:00:55 51°10.265 2°39.158 34.817117 0.010194 0.059253  
2002-09-25 08:00:59 51°10.258 2°39.133 35.016852 0.010194 0.059259  
2002-09-25 08:01:05 51°10.254 2°39.093 35.761292 0.010194 0.059259  
2002-09-25 08:01:10 51°10.247 2°39.061 35.761292 0.010194 0.059259  
2002-09-25 08:01:15 51°10.244 2°39.028 33.792125 0.010194 0.059251  
2002-09-25 08:01:19 51°10.239 2°39.002 34.573323 0.010194 0.059266  
2002-09-25 08:01:25 51°10.234 2°38.963 35.706737 0.010194 0.059268  
2002-09-25 08:01:29 51°10.229 2°38.937 32.398452 0.010194 0.059265  
2002-09-25 08:01:35 51°10.224 2°38.898 33.555654 0.010194 0.05926  
2002-09-25 08:01:39 51°10.219 2°38.872 33.555654 0.010194 0.05926  
2002-09-25 08:01:45 51°10.213 2°38.832 35.0354 0.010194 0.059263  
2002-09-25 08:01:50 51°10.208 2°38.8 33.334004 0.010194 0.059273  
2002-09-25 08:01:55 51°10.203 2°38.767 35.351224 0.010194 0.059277  
2002-09-25 08:01:59 51°10.199 2°38.741 34.906238 0.010194 0.059271  
2002-09-25 08:02:05 51°10.194 2°38.7 34.86497 0.010194 0.059263  
2002-09-25 08:02:09 51°10.19 2°38.674 34.86497 0.010194 0.059263  
2002-09-25 08:02:15 51°10.184 2°38.634 35.027763 0.010194 0.05926  
2002-09-25 08:02:19 51°10.18 2°38.609 34.955857 0.010194 0.059271  
2002-09-25 08:02:25 51°10.174 2°38.57 34.135964 0.010194 0.059272  
2002-09-25 08:02:30 51°10.17 2°38.536 35.765845 0.010194 0.059275  
2002-09-25 08:02:35 51°10.164 2°38.504 34.777228 0.010194 0.059275  
2002-09-25 08:02:39 51°10.16 2°38.477 34.777228 0.010194 0.059275  
2002-09-25 08:02:45 51°10.154 2°38.437 33.968188 0.010194 0.059269  
2002-09-25 08:02:50 51°10.15 2°38.404 34.51248 0.010194 0.059268  
2002-09-25 08:02:55 51°10.144 2°38.372 33.626502 0.01009 0.058704  
2002-09-25 08:02:59 51°10.14 2°38.345 32.520434 0.010194 0.059263  
2002-09-25 08:03:05 51°10.134 2°38.305 34.913952 0.010194 0.059266  
2002-09-25 08:03:10 51°10.129 2°38.272 34.913952 0.010194 0.059266  
2002-09-25 08:03:15 51°10.125 2°38.239 34.756529 0.010194 0.059272  
2002-09-25 08:03:19 51°10.121 2°38.213 35.26343 0.010194 0.059269  
2002-09-25 08:03:25 51°10.115 2°38.173 36.72116 0.010194 0.059272  
2002-09-25 08:03:30 51°10.11 2°38.14 36.019011 0.010194 0.059269  
2002-09-25 08:03:35 51°10.104 2°38.107 36.521178 0.010194 0.059276  
2002-09-25 08:03:39 51°10.101 2°38.081 36.521178 0.010194 0.059276  
2002-09-25 08:03:45 51°10.095 2°38.041 36.883994 0.010194 0.05927  
2002-09-25 08:03:50 51°10.091 2°38.008 35.150851 0.010194 0.059269  
2002-09-25 08:03:55 51°10.085 2°37.975 34.867355 0.010194 0.059267  
2002-09-25 08:04:00 51°10.081 2°37.942 34.599521 0.010194 0.059266  
2002-09-25 08:04:02 51°10.08 2°37.929 33.785307 0.010194 0.059275  
2002-09-25 08:04:10 51°10.073 2°37.876 33.785307 0.010194 0.059275  
2002-09-25 08:04:15 51°10.067 2°37.843 34.780047 0.010194 0.059263  
2002-09-25 08:04:19 51°10.066 2°37.817 34.373187 0.010194 0.059252  
2002-09-25 08:04:25 51°10.059 2°37.777 34.517605 0.010194 0.059263  
2002-09-25 08:04:29 51°10.057 2°37.75 29.166208 0.010194 0.059263  
2002-09-25 08:04:35 51°10.051 2°37.711 35.323793 0.010194 0.059259  
2002-09-25 08:04:40 51°10.048 2°37.677 35.323793 0.010194 0.059259  
2002-09-25 08:04:45 51°10.044 2°37.644 35.202493 0.010194 0.059258  
2002-09-25 08:04:50 51°10.04 2°37.612 34.416747 0.010194 0.059274  
2002-09-25 08:04:55 51°10.036 2°37.579 34.250007 0.010194 0.059272  
2002-09-25 08:04:59 51°10.033 2°37.553 34.968562 0.010194 0.059272  
2002-09-25 08:05:05 51°10.027 2°37.513 34.8201 0.010194 0.059272  
2002-09-25 08:05:10 51°10.024 2°37.48 34.8201 0.010194 0.059272  
2002-09-25 08:05:15 51°10.019 2°37.447 33.708147 0.010194 0.059272  
2002-09-25 08:05:19 51°10.017 2°37.421 35.551648 0.010194 0.059275  
2002-09-25 08:05:25 51°10.011 2°37.381 34.082644 0.010194 0.059279  
2002-09-25 08:05:30 51°10.008 2°37.347 35.391119 0.010194 0.059279  
2002-09-25 08:05:35 51°10.004 2°37.314 35.35478 0.010194 0.059272  
2002-09-25 08:05:39 51°10.001 2°37.287 35.35478 0.010194 0.059272  
2002-09-25 08:05:45 51°9.996 2°37.248 35.453357 0.010194 0.059275  
2002-09-25 08:05:50 51°9.992 2°37.213 34.067016 0.010194 0.059275  
2002-09-25 08:05:55 51°9.988 2°37.18 35.540086 0.010194 0.059283  
2002-09-25 08:06:00 51°9.985 2°37.147 35.679987 0.010194 0.059278  
2002-09-25 08:06:05 51°9.982 2°37.115 34.392853 0.010194 0.05928  
2002-09-25 08:06:10 51°9.978 2°37.081 34.392853 0.010194 0.05928  
2002-09-25 08:06:14 51°9.976 2°37.054 34.847575 0.010194 0.059278  
2002-09-25 08:06:19 51°9.972 2°37.021 35.563765 0.010194 0.059278  
2002-09-25 08:06:25 51°9.968 2°36.982 33.105587 0.010194 0.059277  
2002-09-25 08:06:30 51°9.964 2°36.949 34.604175 0.010194 0.059276  
2002-09-25 08:06:35 51°9.959 2°36.915 34.517006 0.010194 0.059275  
2002-09-25 08:06:39 51°9.959 2°36.888 34.517006 0.010194 0.059275  
2002-09-25 08:06:45 51°9.954 2°36.849 34.06233 0.010194 0.059269  
2002-09-25 08:06:50 51°9.952 2°36.815 35.008123 0.010194 0.059264  
2002-09-25 08:06:55 51°9.949 2°36.782 30.656064 0.010194 0.059262  
2002-09-25 08:06:59 51°9.947 2°36.755 34.491679 0.010194 0.059259  
2002-09-25 08:07:05 51°9.944 2°36.716 33.885205 0.010194 0.059263  
2002-09-25 08:07:10 51°9.94 2°36.683 33.885205 0.010194 0.059263  
2002-09-25 08:07:15 51°9.939 2°36.649 34.827492 0.010194 0.059281  
2002-09-25 08:07:19 51°9.937 2°36.622 34.539098 0.010194 0.059275  
2002-09-25 08:07:25 51°9.936 2°36.583 34.545685 0.010194 0.059271  
2002-09-25 08:07:30 51°9.934 2°36.55 35.856453 0.01009 0.05871  
2002-09-25 08:07:35 51°9.933 2°36.517 35.582184 0.010194 0.059275  
2002-09-25 08:07:39 51°9.934 2°36.49 35.582184 0.010194 0.059275  
2002-09-25 08:07:45 51°9.933 2°36.45 35.186822 0.010194 0.059267  
2002-09-25 08:07:50 51°9.934 2°36.417 36.418465 0.010194 0.059268  
2002-09-25 08:07:55 51°9.934 2°36.384 34.673714 0.010194 0.059261  
2002-09-25 08:07:59 51°9.935 2°36.357 34.348913 0.010194 0.059263  
2002-09-25 08:08:05 51°9.936 2°36.318 36.917477 0.010194 0.059265  
2002-09-25 08:08:10 51°9.938 2°36.284 36.917477 0.010194 0.059265  
2002-09-25 08:08:15 51°9.939 2°36.251 35.540743 0.010194 0.059265  
2002-09-25 08:08:19 51°9.941 2°36.225 35.230923 0.010194 0.059266  
2002-09-25 08:08:25 51°9.943 2°36.185 35.529378 0.010194 0.059267  
2002-09-25 08:08:30 51°9.945 2°36.152 37.037505 0.010194 0.059268  
2002-09-25 08:08:34 51°9.948 2°36.126 35.033251 0.010194 0.059268  
2002-09-25 08:08:39 51°9.951 2°36.093 35.033251 0.010194 0.059268  
2002-09-25 08:08:45 51°9.957 2°36.055 35.143126 0.010194 0.059268  
2002-09-25 08:08:50 51°9.961 2°36.023 35.103568 0.010194 0.05927  
2002-09-25 08:08:54 51°9.967 2°35.999 34.981035 0.010194 0.059264  
2002-09-25 08:08:59 51°9.973 2°35.968 35.537951 0.010194 0.059261  
2002-09-25 08:09:05 51°9.982 2°35.932 34.458318 0.010194 0.059256  
2002-09-25 08:09:10 51°9.991 2°35.903 34.458318 0.010194 0.059256  
2002-09-25 08:09:15 51°9.999 2°35.873 34.675275 0.010194 0.05926  
2002-09-25 08:09:19 51°10.007 2°35.85 32.011723 0.010194 0.059264  
2002-09-25 08:09:25 51°10.017 2°35.816 36.333766 0.010194 0.059262